Hourly Data Report for February 11, 2011

HALIFAX STANFIELD INT'L A
NOVA SCOTIA

44°52'48.060" N
63°30'00.050" W
145.40 m
8202250
71395
YHZ

Download Data

Hourly Data (February 2011)
Hourly Data Report for February 11, 2011
TIME
LST
Temp Definition
°C
Dew Point Definition
°C
Rel Hum Definition
%
Precip. Amount Definition
mm

Wind Dir Definition
10's deg

Wind Spd Definition
km/h
Visibility Definition
km
Stn Press Definition
kPa
Hmdx Definition


Wind Chill Definition


Weather Definition


00:00 -13.8 -15.3 88   27 9 24.1 99.31   -19 Mostly Cloudy
01:00 -11.7 -13.2 89   27 7 4.0 99.36   -16 Snow
02:00 -12.1 -13.5 89   29 9 24.1 99.43   -17 Snow
03:00 -12.7 -14.0 90   29 11 24.1 99.49   -19 Clear
04:00 -12.7 -14.2 89   30 11 24.1 99.57   -19 Snow
05:00 -13.3 -14.7 89   30 17 24.1 99.68   -21 Snow
06:00 -14.8 -17.4 81   31 13 24.1 99.75   -22 Clear
07:00 -17.2 -22.3 64   25 9 24.1 99.82   -23 Clear
08:00 -16.0 -18.8 79   21 13 24.1 99.91   -24 Clear
09:00 -13.2 -16.6 76   21 17 24.1 100.00   -21 Clear
10:00 -9.9 -13.6 74   20 20 24.1 99.99   -18 Clear
11:00 -7.9 -12.6 69   19 17 24.1 99.92   -15 Clear
12:00 -7.1 -12.4 66   20 22 24.1 99.85   -15 Mostly Cloudy
13:00 -6.6 -11.9 66   22 20 24.1 99.76   -14 Cloudy
14:00 -6.8 -9.3 82   21 24 6.4 99.73   -14 Snow Showers
15:00 -6.5 -8.1 88   21 22 2.4 99.64   -14 Snow Showers
16:00 -5.9 -7.3 90   23 17 6.4 99.65   -12 Snow Showers
17:00 -6.4 -9.8 77   26 20 24.1 99.70   -13 Mainly Clear
18:00 -7.6 -10.5 80   26 13 24.1 99.79   -13 Mainly Clear
19:00 -8.8 -11.7 79   25 9 24.1 99.90   -13 Mainly Clear
20:00 -9.9 -12.3 83   24 9 24.1 99.96   -15 Mainly Clear
21:00 -11.0 -12.9 86   23 7 24.1 100.06   -15 Clear
22:00 -11.0 -12.3 90   25 9 24.1 100.12   -16 Mainly Clear
23:00 -12.1 -13.6 89   26 6 24.1 100.13   -16 Clear

Notes on Data Quality.

Legend

  • E = Estimated
  • M = Missing
  • NA = Not Available*
  • [empty] = Indicates an unobserved value
Date modified: